Weather in Raseiniai

Lithuania     55˚22′48″N   23˚06′53″E
temp.,
°C
wind,
m/s
gust,
m/s
humid.,
%
clouds,
%
prec.,
mm/h
press.,
hPa
HPBL,
m
3 december, thu
thu323:00−4˚se489454 0.0 1025329
02:00−4˚se379566 0.0 1023299
05:00−4˚se489680 0.0 1022337
08:00−3˚sse589285 0.1 1020479
11:00−3˚sse6985100 0.0 1020605
14:00−2˚sse6981100 0.1 1018627
17:00−2˚se61179100 0.0 1017656
20:00−1˚se71482100 0.0 1015619
4 december, fri
fri423:00−1˚se71485100 0.0 1014656
02:00sse71483100 0.0 1014743
05:00se71486100 0.0 1011635
08:00+1˚se71586100 0.0 1011656
11:00+2˚se8158699 0.0 1011709
14:00+3˚se81485100 0.0 1011694
17:00+2˚se71588100 0.0 1010659
20:00+2˚se81788100 0.0 1010660
5 december, sat
sat523:00+3˚sse8179097 0.0 1010672
02:00+4˚sse7169098 0.0 1011681
05:00+4˚sse71891100 0.0 1010611
08:00+5˚sse81691100 0.0 1012673
11:00+6˚sse8178896 0.0 1013665
14:00+7˚sse8168697 0.0 1014702
17:00+6˚sse81789100 0.0 1014661
20:00+7˚sse81587100 0.0 1016753
6 december, sun
sun623:00+7˚sse71686100 0.0 1016695
02:00+6˚sse71689100 0.0 1017650
05:00+6˚sse81585100 0.0 1018708
08:00+6˚sse81584100 0.0 1019711
11:00+6˚sse81481100 0.0 1020752
14:00+5˚se81379100 0.0 1021660
17:00+3˚se71476100 0.0 1022674
20:00+2˚se7157577 0.0 1023658
7 december, mon
mon723:00+1˚se7165861 0.0 1024626
02:00se8175463 0.0 1024603
05:00se817520 0.0 1024619
08:00−1˚se816500 0.0 1024661
11:00se916440 0.0 1023770
14:00+1˚se917420 0.0 1022821
17:00se917480 0.0 1023769
20:00−1˚se816510 0.0 1024794